Weather History for KFLL - July, 2012

Change the Weather History Date:

Tuesday, July 3, 2012

  Actual Average Record
Temperature  
Mean Temperature 84 °F 84 °F  
Max Temperature 90 °F 90 °F 98 °F (1998)
Min Temperature 78 °F 78 °F 67 °F (1931)
Degree Days  
Heating Degree Days 0 0  
Month to date heating degree days 0 0  
Since 1 June heating degree days 0 0  
Since 1 July heating degree days 0 0  
Cooling Degree Days 19 19  
Month to date cooling degree days 59 57  
Year to date cooling degree days 2094 2018  
Since 1 June cooling degree days 589 600  
Growing Degree Days 34 (Base 50)    
Moisture  
Dew Point 74 °F    
Average Humidity 72    
Maximum Humidity 85    
Minimum Humidity 59    
Precipitation  
Precipitation 0.00 in 0.24 in 3.35 in (1973)
Month to date precipitation 0.00 0.71  
Year to date precipitation 23.20 28.36  
Snow  
Snow 0.00 in - - ()
Month to date snowfall 0.0  
Since 1 June snowfall 0.0  
Since 1 July snowfall 0.0  
Snow Depth 0.00 in    
Sea Level Pressure  
Sea Level Pressure 30.04 in    
Wind  
Wind Speed 7 mph (ESE)    
Max Wind Speed 15 mph    
Max Gust Speed 21 mph    
Visibility 10 miles    
Events      
T = Trace of Precipitation, MM = Missing Value Source: NWS Daily Summary

Daily Weather History Graph

Daily Weather History Graph

Search for Another Location

Airport or City:

Trip Planner

Search our weather history database for the weather conditions in past years. The results will help you decide how hot, cold, wet, or windy it might be!

Date:

Astronomy

Jul. 03, 2012 Rise Set
Actual Time 6:33 AM EDT 8:16 PM EDT
Civil Twilight 6:07 AM EDT 8:42 PM EDT
Nautical Twilight 5:35 AM EDT 9:13 PM EDT
Astronomical Twilight 5:03 AM EDT 9:46 PM EDT
Moon 8:16 PM EDT 6:20 AM EDT
Length of Visible Light 14h 35m
Length of Day
13h 43m
Full, 100% of the Moon is Illuminated
Jul 3
Full
Jul 3
Full
Jul 10
Last Quarter
Jul 19
New
Jul 26
First Quarter

Hourly Weather History & Observations

Time (EDT) Temp. Heat Index Dew Point Humidity Pressure Visibility Wind Dir Wind Speed Gust Speed Precip Events Conditions
12:53 AM 81.0 °F 85.2 °F 72.0 °F 74% 30.06 in 10.0 mi Calm Calm - N/A   Clear
1:53 AM 80.1 °F 84.2 °F 73.0 °F 79% 30.06 in 10.0 mi Calm Calm - N/A   Partly Cloudy
2:53 AM 81.0 °F 85.8 °F 73.0 °F 77% 30.04 in 10.0 mi NW 4.6 mph - N/A   Partly Cloudy
3:53 AM 80.1 °F 84.5 °F 73.9 °F 81% 30.02 in 10.0 mi NNW 5.8 mph - N/A   Mostly Cloudy
4:53 AM 79.0 °F - 73.9 °F 84% 30.03 in 10.0 mi Calm Calm - N/A   Scattered Clouds
5:53 AM 78.1 °F - 73.0 °F 84% 30.03 in 10.0 mi NNW 3.5 mph - N/A   Partly Cloudy
6:53 AM 79.0 °F - 73.0 °F 82% 30.04 in 10.0 mi Calm Calm - N/A   Mostly Cloudy
7:53 AM 82.0 °F 87.4 °F 73.0 °F 74% 30.06 in 10.0 mi North 4.6 mph - N/A   Partly Cloudy
8:53 AM 84.9 °F 92.1 °F 73.9 °F 69% 30.06 in 10.0 mi Variable 3.5 mph - N/A   Partly Cloudy
9:53 AM 86.0 °F 93.0 °F 73.0 °F 65% 30.06 in 10.0 mi East 6.9 mph - N/A   Partly Cloudy
10:53 AM 87.1 °F 94.5 °F 73.0 °F 63% 30.07 in 10.0 mi East 5.8 mph - N/A   Partly Cloudy
11:53 AM 87.1 °F 94.5 °F 73.0 °F 63% 30.08 in 10.0 mi SE 6.9 mph - N/A   Partly Cloudy
12:53 PM 89.1 °F 98.0 °F 73.9 °F 61% 30.07 in 10.0 mi SE 11.5 mph - N/A   Partly Cloudy
1:53 PM 89.1 °F 98.0 °F 73.9 °F 61% 30.06 in 10.0 mi East 11.5 mph - N/A   Partly Cloudy
2:53 PM 89.1 °F 98.0 °F 73.9 °F 61% 30.05 in 10.0 mi East 10.4 mph - N/A   Partly Cloudy
3:53 PM 88.0 °F 96.5 °F 73.9 °F 63% 30.04 in 10.0 mi East 12.7 mph - N/A   Partly Cloudy
4:53 PM 87.1 °F 96.3 °F 75.0 °F 67% 30.03 in 10.0 mi East 11.5 mph - N/A   Scattered Clouds
5:53 PM 87.1 °F 96.3 °F 75.0 °F 67% 30.02 in 10.0 mi SE 12.7 mph - N/A   Scattered Clouds
6:53 PM 86.0 °F 93.0 °F 73.0 °F 65% 30.00 in 10.0 mi ESE 9.2 mph - N/A   Partly Cloudy
7:53 PM 84.0 °F 91.9 °F 75.0 °F 74% 30.01 in 10.0 mi ESE 9.2 mph - N/A   Partly Cloudy
8:53 PM 82.9 °F 89.4 °F 73.9 °F 74% 30.02 in 10.0 mi SE 10.4 mph - N/A   Clear
9:53 PM 82.9 °F 88.8 °F 73.0 °F 72% 30.04 in 10.0 mi SE 9.2 mph - N/A   Partly Cloudy
10:53 PM 82.9 °F 89.4 °F 73.9 °F 74% 30.06 in 10.0 mi SE 4.6 mph - N/A   Partly Cloudy
11:53 PM 82.9 °F 90.2 °F 75.0 °F 77% 30.07 in 10.0 mi SSE 5.8 mph - N/A   Scattered Clouds